Regional Weather Roundup
Issued by NWS Bismarck, ND

Home | Current Version | Previous Version | Text Only | Print | Product List | Glossary On
Versions: 1 2 3 4 5 6 7 8 9 10 11 12 13 14 15 16 17 18 19 20 21 22 23 24 25 26 27 28 29 30 31 32 33 34 35 36 37 38 39 40 41 42 43 44 45 46 47 48 49 50
000
ASUS43 KBIS 291010
RWRBIS

NWR BROADCAST TEXT
NATIONAL WEATHER SERVICE BISMARCK ND
500 AM CDT SUN MAR 29 2015

NOTE: "FAIR" INDICATES FEW OR NO CLOUDS BELOW 12,000 FEET WITH NO
SIGNIFICANT WEATHER AND/OR OBSTRUCTIONS TO VISIBILITY.


CITY           SKY/WX    TMP DP  RH WIND       PRES   REMARKS
WILLISTON      CLEAR     38  34  85 NW21G29   29.96R
MINOT          PTCLDY    38  32  79 NW25G33   29.78R
MINOT AFB      PTCLDY    38  37  98 NW25      29.77R
BISMARCK       LGT RAIN  41  37  86 NW31G43   29.73R
DICKINSON      CLOUDY    38  33  82 NW28G39   29.90R
GARRISON         N/A     40  36  86 N30G43    29.76R
HETTINGER ARPT CLOUDY    39  37  92 NW29G41   29.91R
JAMESTOWN      RAIN      44  43  96 NW21G39   29.54R FOG
BEACH          FAIR      36  36 100 NW22G29   30.03R
CARRINGTON     MIX PCPN  39  39 100 NW32G40   29.60R
CROSBY         FAIR      36  36 100 NW20G26   29.93R
HARVEY         CLOUDY    37  37 100 NW31G40   29.66R
HAZEN          CLOUDY    39  36  87 NW22G33   29.83R
LINTON         RAIN      45  45 100 NW26G36   29.66R
MANDAN         CLOUDY    39  37  93 NW28G45   29.75R
OAKES            N/A     43  41  93 W13       29.55R
RUGBY          CLOUDY    37  36  93 NW24G33   29.68R
WATFORD CITY   FAIR      36  32  87 NW14G22   29.94R
$$

CITY           SKY/WX    TMP DP  RH WIND       PRES   REMARKS
GRAND FORKS    CLOUDY    43  39  86 N29G44    29.46R
GRAND FORKS AF LGT RAIN  43  39  87 N26G38    29.48R
DEVILS LAKE    CLOUDY    39  36  87 N18       29.58R
FARGO          CLOUDY    42  38  85 S18       29.46F
CAVALIER       CLOUDY    37  36  93 N31G45    29.52R
GWINNER        PTSUNNY   46  45  93 W23G29      N/A
ROLLA          CLOUDY    36  36 100 NW31G40   29.66R
WALHALLA         N/A     37  37 100 NW23G35   29.56R
$$

CITY           SKY/WX    TMP DP  RH WIND       PRES   REMARKS
ABERDEEN       CLEAR     46  38  73 W17       29.61S
MOBRIDGE       LGT RAIN  46  40  79 NW23G38   29.68R
BUFFALO          N/A     42  36  79 NW43G51   29.89R
RAPID CITY     PTCLDY    46  31  55 NW49G63   29.94R
GLASGOW        CLEAR     36  33  89 W6        30.06S
SIDNEY         CLEAR     39  34  81 W15       30.01R
WOLF POINT     CLEAR     39  34  82 W10       30.06R
GLENDIVE         N/A     37  32  81 NW17      30.07R
MILES CITY     CLOUDY    42  41  96 N15G21    30.16R
BAKER          CLOUDY    39  32  76 NW25G38   30.06R
$$

CITY           SKY/WX    TMP DP  RH WIND       PRES   REMARKS
BILLINGS       CLEAR     46  22  38 W21       30.19S
GREAT FALLS    CLEAR     39  28  64 SW14      30.17R
REGINA         CLEAR     34  32  93 W13       29.94R
ESTEVAN        CLEAR     34  32  93 NW18      29.89R
$$




USA.gov is the U.S. government's official web portal to all federal, state and local government web resources and services.